Back to catalog

ATLAS CENTAUR R/B

AliveGTO
NORAD 12363·ROCKET BODY·🇺🇸 United States

Launched Feb 21, 1981 from Cape Canaveral Space Force Station

Loading…

TLE

StaleSource: Space-Track

Epoch: Sep 13, 2026, 20:11 UTC

1 12363U 81018B   26256.84102412 -.00000115  00000-0  97638-4 0  9991
2 12363  20.8157 304.0855 7171476 125.8717 323.0000  2.22125686369391

Track ATLAS CENTAUR R/B in real time with AllMySat

Download on the App Store